Port Heiden, AK

10:24 AM AKDT on October 20, 2017 (GMT -0800)
Port Heiden

Weather History for PAPH - November, 2012

Change the Weather History Date:

Saturday, November 17, 2012

  Actual Average Record
Temperature  
Mean Temperature 17 °F -  
Max Temperature 19 °F 37 °F 69 °F (1998)
Min Temperature 12 °F 28 °F 6 °F (2006)
Degree Days  
Heating Degree Days 48    
Moisture  
Dew Point 3 °F    
Average Humidity 55    
Maximum Humidity 62    
Minimum Humidity 46    
Precipitation  
Precipitation 0.92 in - - ()
Sea Level Pressure  
Sea Level Pressure 29.39 in    
Wind  
Wind Speed 14 mph (NE)    
Max Wind Speed 20 mph    
Max Gust Speed -    
Visibility 10 miles    
Events      
Averages and records for this station are not official NWS values.
T = Trace of Precipitation, MM = Missing Value Source: NWS Daily Summary

Daily Weather History Graph

Daily Weather History Graph

Search for Another Location

Airport or City:

Trip Planner

Search our weather history database for the weather conditions in past years. The results will help you decide how hot, cold, wet, or windy it might be!

Date:

Astronomy

Nov. 17, 2012 Rise Set
Actual Time 9:21 AM AKST 5:17 PM AKST
Civil Twilight 8:37 AM AKST 6:01 PM AKST
Nautical Twilight 7:49 AM AKST 6:48 PM AKST
Astronomical Twilight 7:04 AM AKST 7:33 PM AKST
Moon 1:12 PM AKST (11/17) 9:46 PM AKST (11/17)
Length of Visible Light 9h 24m
Length of Day
7h 55m
Waxing Crescent, 21% of the Moon is Illuminated
Nov 17
Waxing Crescent
Nov 20
First Quarter
Nov 28
Full
Dec 6
Last Quarter
Dec 12
New

Hourly Weather History & Observations

Time (AKST) Temp. Windchill Dew Point Humidity Pressure Visibility Wind Dir Wind Speed Gust Speed Precip Events Conditions
12:16 AM - - - N/A% 29.56 in 10.0 mi NE 17.3 mph - N/A   Clear
12:36 AM - - - N/A% 29.56 in 10.0 mi NE 12.7 mph - N/A   Clear
12:56 AM - - - N/A% 29.55 in 10.0 mi NE 17.3 mph - N/A   Clear
1:16 AM - - - N/A% 29.54 in 10.0 mi NE 15.0 mph - N/A   Clear
1:36 AM - - - N/A% 29.53 in 10.0 mi NE 17.3 mph - N/A   Clear
1:56 AM - - - N/A% 29.53 in 10.0 mi NE 19.6 mph - N/A   Clear
2:16 AM - - - N/A% 29.52 in 10.0 mi NE 19.6 mph - N/A   Clear
2:36 AM - - - N/A% 29.52 in 10.0 mi NE 18.4 mph - N/A   Clear
2:56 AM - - - N/A% 29.51 in 10.0 mi NE 16.1 mph - N/A   Clear
3:16 AM - - - N/A% 29.52 in 10.0 mi NE 15.0 mph - N/A   Clear
3:36 AM - - - N/A% 29.51 in 10.0 mi NE 15.0 mph - N/A   Clear
3:56 AM - - - N/A% 29.51 in 10.0 mi NE 15.0 mph - N/A   Clear
4:16 AM - - - N/A% 29.51 in 10.0 mi NE 15.0 mph - N/A   Clear
4:36 AM - - - N/A% 29.49 in 10.0 mi NE 15.0 mph - N/A   Clear
4:56 AM - - - N/A% 29.49 in 10.0 mi NE 15.0 mph - N/A   Clear
5:16 AM - - - N/A% 29.49 in 10.0 mi NE 15.0 mph - N/A   Clear
5:36 AM - - - N/A% 29.48 in 10.0 mi NE 11.5 mph - 0.01 in   Clear
5:56 AM - - - N/A% 29.47 in 10.0 mi NE 12.7 mph - 0.01 in   Clear
6:16 AM - - - N/A% 29.46 in 10.0 mi NNE 12.7 mph - N/A   Clear
6:36 AM - - - N/A% 29.46 in 10.0 mi NNE 11.5 mph - N/A   Clear
6:56 AM - - - N/A% 29.45 in 10.0 mi NE 15.0 mph - N/A   Clear
7:16 AM - - - N/A% 29.44 in 10.0 mi NE 15.0 mph - N/A   Clear
7:36 AM - - - N/A% 29.43 in 10.0 mi NE 15.0 mph - N/A   Clear
7:56 AM - - - N/A% 29.43 in 10.0 mi NE 13.8 mph - N/A   Clear
8:16 AM - - - N/A% 29.43 in 10.0 mi NNE 16.1 mph - 0.09 in   Clear
8:36 AM - - - N/A% 29.43 in 10.0 mi NNE 16.1 mph - 0.09 in   Clear
8:56 AM - - - N/A% 29.42 in 10.0 mi NNE 13.8 mph - 0.09 in   Clear
9:16 AM - - - N/A% 29.41 in 10.0 mi NE 16.1 mph - 0.03 in   Clear
9:36 AM - - - N/A% 29.40 in 10.0 mi ENE 16.1 mph - 0.05 in   Mostly Cloudy
9:56 AM - - - N/A% 29.40 in 10.0 mi NE 13.8 mph - 0.05 in   Overcast
10:16 AM - - - N/A% 29.40 in 10.0 mi NE 10.4 mph - N/A   Overcast
10:36 AM - - - N/A% 29.39 in 10.0 mi NNE 11.5 mph - 0.12 in   Overcast
10:56 AM - - - N/A% 29.40 in 10.0 mi NNE 8.1 mph - 0.16 in   Overcast
11:16 AM 15.8 °F 4.2 °F 3.2 °F 58% 29.39 in 10.0 mi NE 9.2 mph - 0.16 in   Overcast
11:36 AM 15.8 °F 3.4 °F 5.0 °F 62% 29.40 in 10.0 mi NNE 10.4 mph - 0.25 in   Overcast
11:56 AM 15.8 °F 3.4 °F 5.0 °F 62% 29.39 in 10.0 mi NE 10.4 mph - 0.31 in   Overcast
12:16 PM 15.8 °F 6.1 °F 3.2 °F 58% 29.38 in 10.0 mi NE 6.9 mph - N/A   Overcast
12:36 PM - - - N/A% 29.37 in 10.0 mi North 10.4 mph - 0.03 in   Overcast
12:56 PM - - - N/A% 29.36 in 10.0 mi NNE 9.2 mph - 0.05 in   Overcast
1:16 PM - - - N/A% 29.35 in 10.0 mi NNE 12.7 mph - N/A   Overcast
1:36 PM 19.4 °F 7.2 °F 3.2 °F 49% 29.35 in 10.0 mi NNE 11.5 mph - 0.01 in   Overcast
1:56 PM 19.4 °F 6.0 °F 1.4 °F 46% 29.35 in 10.0 mi NNE 13.8 mph - 0.04 in   Overcast
2:16 PM - - - N/A% 29.34 in 10.0 mi NNE 13.8 mph - N/A   Overcast
2:36 PM - - - N/A% 29.33 in 10.0 mi NE 11.5 mph - N/A   Overcast
2:56 PM - - - N/A% 29.32 in 10.0 mi NNE 13.8 mph - N/A   Overcast
3:16 PM - - - N/A% 29.32 in 10.0 mi NNE 10.4 mph - N/A   Overcast
3:36 PM - - - N/A% 29.32 in 10.0 mi NE 12.7 mph - N/A   Overcast
3:56 PM - - - N/A% 29.31 in 10.0 mi NNE 9.2 mph - N/A   Overcast
4:16 PM - - - N/A% 29.31 in 10.0 mi NE 8.1 mph - N/A   Overcast
4:36 PM - - - N/A% 29.30 in 10.0 mi NE 8.1 mph - N/A   Overcast
4:56 PM - - - N/A% 29.30 in 10.0 mi ENE 9.2 mph - N/A   Overcast
5:16 PM - - - N/A% 29.29 in 10.0 mi ENE 8.1 mph - N/A   Overcast
5:36 PM - - - N/A% 29.29 in 10.0 mi ENE 8.1 mph - N/A   Overcast
5:56 PM - - - N/A% 29.29 in 10.0 mi ENE 10.4 mph - N/A   Overcast
6:16 PM - - - N/A% 29.28 in 10.0 mi NE 9.2 mph - N/A   Overcast
6:36 PM - - - N/A% 29.28 in 10.0 mi NE 10.4 mph - 0.01 in   Overcast
6:56 PM - - - N/A% 29.27 in 10.0 mi NE 11.5 mph - 0.02 in   Overcast
7:16 PM - - - N/A% 29.27 in 10.0 mi NE 16.1 mph - 0.07 in   Overcast
7:36 PM - - - N/A% 29.27 in 10.0 mi NE 16.1 mph - 0.12 in   Overcast
7:56 PM - - - N/A% 29.27 in 10.0 mi NE 16.1 mph - 0.16 in   Overcast
8:16 PM - - - N/A% 29.28 in 10.0 mi NE 13.8 mph - N/A   Overcast
8:36 PM - - - N/A% 29.28 in 10.0 mi NE 12.7 mph - N/A   Overcast
8:56 PM - - - N/A% 29.29 in 10.0 mi NE 12.7 mph - N/A   Overcast
9:16 PM - - - N/A% 29.29 in 10.0 mi NE 10.4 mph - N/A   Overcast
9:36 PM - - - N/A% 29.29 in 10.0 mi NE 10.4 mph - N/A   Overcast
9:56 PM - - - N/A% 29.29 in 10.0 mi NE 10.4 mph - N/A   Overcast
10:16 PM - - - N/A% 29.30 in 10.0 mi NE 9.2 mph - N/A   Overcast
10:36 PM - - - N/A% 29.29 in 10.0 mi ENE 12.7 mph - 0.02 in   Overcast
10:56 PM - - - N/A% 29.29 in 10.0 mi ENE 12.7 mph - 0.02 in   Overcast
11:16 PM - - - N/A% 29.29 in 10.0 mi ENE 11.5 mph - N/A   Overcast
11:36 PM - - - N/A% 29.29 in 10.0 mi East 10.4 mph - 0.01 in   Overcast
11:56 PM 12.2 °F -1.8 °F -2.2 °F 53% 29.29 in 10.0 mi ENE 11.5 mph - 0.01 in   Overcast